Regional Weather Roundup
Issued by NWS

Home | Current Version | Previous Version | Text Only | Print | Product List | Glossary Off
Versions: 1 2 3 4 5 6 7 8 9 10 11 12 13 14 15 16 17 18 19 20 21 22 23 24 25 26 27 28 29 30 31 32 33 34 35 36 37 38 39 40 41 42 43 44 45 46 47 48 49 50

000
ASUS43 KMKX 231711
RWRWI

WISCONSIN REGIONAL WEATHER ROUNDUP
NATIONAL WEATHER SERVICE MILWAUKEE/SULLIVAN WI
1200 PM CDT THU OCT 23 2014

NOTE: "FAIR" INDICATES FEW OR NO CLOUDS BELOW 12,000 FEET WITH NO
SIGNIFICANT WEATHER AND/OR OBSTRUCTIONS TO VISIBILITY.

WIZ001-002-006>008-014>016-023>028-231800-
NORTHWEST WISCONSIN

CITY           SKY/WX    TMP DP  RH WIND       PRES   REMARKS
SUPERIOR ARPT  CLOUDY    52  50  92 SW7       29.97S
ASHLAND        CLOUDY    50  48  93 S6        30.00S
HAYWARD        CLOUDY    49  47  93 S8        30.01R FOG
SIREN          CLOUDY    52  51  97 SW7       30.00S FOG
CUMBERLAND     FOG       48  46  93 S6        30.01S VSB 3/4
RICE LAKE      CLOUDY    49  48  95 SE5       30.03S FOG
CHETEK         CLOUDY    49  48  99 S3        30.02S FOG
LADYSMITH      CLOUDY    47  46  96 SE6       30.04S FOG
EAU CLAIRE     CLOUDY    49  47  93 S7        30.02F
MENOMONIE      CLOUDY    51  50  96 S7        30.02  FOG
NEW RICHMOND   CLOUDY    53  52  99 SW6       30.01S FOG
OSCEOLA        CLOUDY    54  54 100 SW6       30.03S FOG
$$

WIZ003>005-009-010-017-018-231800-
NORTH CENTRAL WISCONSIN

CITY           SKY/WX    TMP DP  RH WIND       PRES   REMARKS
MANITOWISH WTR LGT RAIN  43  43 100 S6        30.02F
ARBOR VITAE    LGT RAIN  45  43  93 S9        30.03S
WOODRUFF       LGT RAIN  45  43  93 S9        30.03S
RHINELANDER    LGT RAIN  43  41  93 S8        30.05F FOG
EAGLE RIVER    RAIN      44  43  97 S6        30.03F
LAND O LAKES   DRIZZLE   46  43  90 S7        30.03F
PHILLIPS       CLOUDY    44  43  98 S6        30.03S FOG
TOMAHAWK       DRIZZLE   43  41  94 CALM      30.06S
MEDFORD        DRIZZLE   43  42  96 S8        30.04F
MERRILL        HVY RAIN  43  43  99 S5        30.07S
$$

WIZ029-030-035-036-043>047-231800-
CENTRAL WISCONSIN

CITY           SKY/WX    TMP DP  RH WIND       PRES   REMARKS
WAUSAU         RAIN      44  42  93 S6        30.06F FOG
MOSINEE        RAIN      43  43 100 S8        30.08F
MARSHFIELD     LGT RAIN  45  43  93 S8        30.06F FOG
STEVENS POINT  LGT RAIN  42  40  96 S6        30.09F
WAUPACA        RAIN      46  44  93 S3        30.12S
WAUTOMA        LGT RAIN  46  45  93 S6        30.11F FOG
WISC RAPIDS    LGT RAIN  45  43  93 S8        30.09F FOG
CAMP DOUGLAS   LGT RAIN  46  46 100 SE8       30.07F
$$

WIZ011>013-019>022-031-037>040-048>050-231800-
NORTHEAST WISCONSIN

CITY           SKY/WX    TMP DP  RH WIND       PRES   REMARKS
ANTIGO         RAIN      40  39  98 S8        30.08S WCI  34
SHAWANO        CLOUDY    50  40  67 SW3       30.11S
OCONTO         PTSUNNY   53  40  61 S7        30.11S
STURGEON BAY   SUNNY     54  41  62 S10       30.13S
GREEN BAY      PTSUNNY   54  41  61 S7        30.12F
MANITOWOC      MOSUNNY   55  42  61 S12       30.13F
APPLETON       PTSUNNY   52  39  62 S10       30.12F
CLINTONVILLE   RAIN      45  41  87 S6        30.11S
OSHKOSH        CLOUDY    51  41  68 S10       30.11F
$$

WIZ032>034-041-042-053>061-231800-
SOUTHWEST WISCONSIN

CITY           SKY/WX    TMP DP  RH WIND       PRES   REMARKS
LA CROSSE      CLOUDY    50  46  86 S10       30.06S
SPARTA         LGT RAIN  47  46  95 S3        30.07S
VIROQUA        CLOUDY    45  45 100 S7        30.07R
BOSCOBEL       LGT RAIN  48  44  86 S3        30.09F
PRAIRIE DU CHI RAIN      47  43  87 E5        30.08S
PLATTEVILLE    CLOUDY    46  45  93 SE12      30.10F
$$

WIZ056-057-062-063-064-067-068-231800-
SOUTH CENTRAL WISCONSIN

CITY           SKY/WX    TMP DP  RH WIND       PRES   REMARKS
REEDSBURG      LGT RAIN  45  43  94 S5        30.08F
BARABOO/DELLS  LGT RAIN  45  43  90 S8        30.09F
LONE ROCK      RAIN      50  44  80 SE6       30.10F
MINERAL POINT  RAIN      46  43  87 SE9       30.09F
MADISON        CLOUDY    52  40  63 S10       30.11F
MIDDLETON      CLOUDY    52  39  62 S6        30.11F
WATERTOWN      CLOUDY    54  42  64 S7        30.11F
MONROE         CLOUDY    52  41  66 S15       30.10F
JANESVILLE     SUNNY     55  39  54 S12G17    30.13F
$$

WIZ051-052-058>065-066-070>072-231800-
SOUTHEAST WISCONSIN

CITY           SKY/WX    TMP DP  RH WIND       PRES   REMARKS
MILWAUKEE      PTSUNNY   56  40  55 SW10      30.15F
WAUKESHA       SUNNY     54  41  62 SW7       30.14F
MILWAUKEE/TIMM SUNNY     55  39  54 S8        30.15F
RACINE         MOSUNNY   57  41  55 S8        30.17F
BURLINGTON     CLOUDY    57  40  53 S9        30.14F
KENOSHA        PTSUNNY   57  42  57 SW12      30.16F
FOND DU LAC    CLOUDY    52  39  61 S12       30.11F
SHEBOYGAN      PTSUNNY   56  41  57 S10       30.14F
WEST BEND      CLOUDY    54  37  54 S7        30.13F
JUNEAU         CLOUDY    50  41  70 S9G16     30.12F
$$

LSZ147-162-231800-
LAKE SUPERIOR

STATION/POSITION TIME  TEMP    WIND        PRES    WAVE
                       AIR SEA DIR/SP/G            HT/PER
                 (UTC) (F)     (DEG/KT/KT) (MB)    (FT/S)
W MID LAKE BUOY  1650   47 46  190/  8/ 10 1016.0F   1/ 3
DEVILS ISLAND    1700   48     180/  6/  9 1015.5F
PORT WING        1600   50     190/  5/  8 1015.6S
SAXON HARBOR     1600   51     200/  5/ 10 1015.9S
$$

LMZ867-665-643>646-231800-
LAKE MICHIGAN

STATION/POSITION TIME  TEMP    WIND        PRES    WAVE
                       AIR SEA DIR/SP/G            HT/PER
                 (UTC) (F)     (DEG/KT/KT) (MB)    (FT/S)
CHAMBERS ISLAND  1600   53     170/  8/ 14 1020.3F
N MID LAKE BUOY  1650   49 51  190/ 16/ 17 1021.0F   3/ 5
NORTHPORT PIER   1600   53     160/  9/ 12 1020.3F
SISTER BAY       1643          190/ 16/ 18   N/A
ALGOMA LAKESHORE 1611          230/ 20/ 23   N/A
KEWAUNEE LAKESHO 1600   50     180/ 15/ 16 1019.9F
SHEBOYGAN LAKESH 1700   49 50  170/ 16/ 17 1021.1F
PORT WASHINGTON  1600   53     170/  8/ 18 1021.7F
ATWATER BUOY     1700   52     140/ 10/ 12 1021.8F
MILWAUKEE LAKESH 1600   52     190/  8/ 10   N/A
S MID LAKE BUOY  1650   52 54  200/ 12/ 14 1022.7F   2/ 5
KENOSHA   LAKESH 1700   56     220/  9/ 16 1021.0F
$$

TC  - TEMPERATURE IN CELSIUS
VSB - VISIBILITY IN STATUTE MILES
WCI - WIND CHILL INDEX
HX  - HEAT INDEX




USA.gov is the U.S. government's official web portal to all federal, state and local government web resources and services.